Preview of NWS' New Version of Forecast
This preview is not operational and should not be used for support decisions.

Regional Weather Roundup (RWR)

Issued by National Weather Service (NWS)

                            
000
ASUS46 KPQR 191410
RWROR 

OREGON REGIONAL WEATHER ROUNDUP
NATIONAL WEATHER SERVICE PORTLAND OR
700 AM PDT MON AUG 19 2019

NOTE: "FAIR" INDICATES FEW OR NO CLOUDS BELOW 12,000 FEET WITH
NO SIGNIFICANT WEATHER AND/OR OBSTRUCTIONS TO VISIBILITY.

ORZ001>013-191500-
NORTHWEST OREGON

  
CITY           SKY/WX    TMP DP  RH WIND       PRES   REMARKS
ASTORIA        CLOUDY    58  57  97 S5        29.99R                  
TILLAMOOK      PTCLDY    50  48  93 CALM      30.01S                  
NEWPORT        PTCLDY    52  52 100 CALM      30.02R                  
FLORENCE       FAIR      54  52  94 CALM      29.99S                  
PORTLAND       MOCLDY    61  53  75 NW5       30.00R                  
VANCOUVER WA   CLOUDY    60  53  77 CALM      29.99R                  
SCAPPOOSE      MOCLDY    58  53  84 N3        29.99R                  
HILLSBORO      CLOUDY    59  53  80 CALM      29.99R                  
AURORA         CLOUDY    60  54  80 E3        30.01R                  
MCMINNVILLE    CLOUDY    59  55  87 CALM      29.99R                  
SALEM          CLOUDY    59  54  83 CALM      29.99R                  
CORVALLIS      CLOUDY    56  53  90 CALM      30.01R                  
EUGENE         CLOUDY    59  53  80 S5        30.00R                  
CRESWELL       CLOUDY    57  54  88 E3        29.99R                  
$$

ORZ021-028-191500-
SOUTHWEST OREGON

  
CITY           SKY/WX    TMP DP  RH WIND       PRES   REMARKS
NORTH BEND     MOCLDY    61  58  90 N3        30.01R                  
BROOKINGS      FOG       52  52 100 CALM      29.99R VSB 3/4          
ROSEBURG       CLOUDY    61  53  75 CALM      29.99R                  
SEXTON SUMMIT  CLEAR     56  50  80 N6        30.01S                  
GRANTS PASS    FAIR      55  52  88 CALM      29.99R                  
MEDFORD        CLEAR     62  52  69 CALM      29.94R                  
$$

ORZ014>016-041-191500-
COLUMBIA GORGE

  
CITY           SKY/WX    TMP DP  RH WIND       PRES   REMARKS
TROUTDALE      CLOUDY    61  54  77 W3        29.99R                  
HOOD RIVER     CLEAR     63  54  72 NW6       29.92S                  
THE DALLES     CLEAR     67  54  63 NW13G21   29.88R                  
$$

ORZ029>031-041-044-049-050-061>064-502-503-505>511-191500-
EASTERN OREGON

  
CITY           SKY/WX    TMP DP  RH WIND       PRES   REMARKS
MADRAS         CLEAR     50  41  71 S5        29.99R                  
REDMOND        CLEAR     52  42  69 S5        29.99R                  
BEND           CLEAR     54  46  76 CALM      30.00R                  
PRINEVILLE     CLEAR     48  43  81 CALM      29.99R                  
KLAMATH FALLS  CLEAR     49  47  93 CALM      30.04R                  
LAKEVIEW       CLEAR     46  39  76 NW6       30.11R                  
HERMISTON      CLEAR     68  47  46 SW8       29.85R                  
PENDLETON      CLEAR     60  45  57 SE8       29.89R                  
JOHN DAY       CLEAR     58  43  57 CALM      30.01R                  
MEACHAM        CLEAR     44  38  79 CALM      29.99R                  
LA GRANDE      NOT AVBL                                               
BAKER CITY     CLEAR     53  46  77 CALM      29.96R                  
BURNS          CLEAR     53  39  59 CALM      30.03R                  
ROME             N/A     70  31  23 SW7       29.99R                  
ONTARIO        SUNNY     63  48  58 W5        29.88R                  
$$